Location: Tucson
(32.2217°N, 110.9265°W)
Time: 02:12:25
(UTC-07:00)

LightSail 2 - Pass Details

Date: 11 December 2019
Orbit: 704 x 719 km, 24.0° (Epoch: 24 January)

Event Time Altitude Azimuth Distance (km) Brightness Sun altitude
Rises 18:03:07 0° 258° (WSW) 3,103 10.5 -9.3°
Reaches altitude 10° 18:06:13 10° 240° (WSW) 2,179 9.2 -9.9°
Maximum altitude 18:09:43 19° 197° (SSW) 1,669 7.6 -10.6°
Drops below altitude 10° 18:13:14 10° 153° (SSE) 2,168 7.6 -11.3°
Sets 18:16:18 0° 136° (SE) 3,081 8.2 -11.9°
